Location: Newark
(44.8341°N, 16.2579°E)
Time: 00:17:16
(UTC+00:00)

N. Korean satellite - Visible Passes

Search period start: 12 November 2019 00:00
Search period end: 22 November 2019 00:00
Orbit: 456 x 506 km, 97.2° (Epoch: 10 November)

Date Brightness Start Highest point End Pass type
(mag) Time Alt. Az. Time Alt. Az. Time Alt. Az.
12 Nov 8.2 04:26:21 10° NNE 04:29:52 39° E 04:33:22 10° SSE visible
12 Nov 8.9 16:36:58 10° SSW 16:40:06 28° W 16:43:17 10° NW visible
13 Nov 9.5 04:01:33 10° NE 04:04:22 20° E 04:07:10 10° SE visible
13 Nov 7.3 16:11:06 10° S 16:14:37 59° W 16:18:15 10° NNW visible
14 Nov 10.4 03:38:07 10° ENE 03:38:46 10° E 03:39:26 10° E visible
14 Nov 6.7 05:08:51 10° N 05:12:32 59° WNW 05:16:10 10° SSW visible
15 Nov 7.1 04:43:28 10° NNE 04:47:11 66° E 04:50:51 10° S visible
15 Nov 9.7 16:54:55 10° SW 16:57:27 18° W 17:00:03 10° NW visible
16 Nov 8.7 04:18:22 10° NNE 04:21:44 31° E 04:25:03 10° SSE visible
16 Nov 8.4 16:28:35 10° SSW 16:31:55 35° W 16:35:20 10° NNW visible
17 Nov 9.8 03:53:45 10° NE 03:56:11 16° E 03:58:35 10° SE visible
17 Nov 6.8 16:02:52 10° S 16:06:29 76° WSW 16:10:11 10° NNW visible
18 Nov 6.5 05:00:42 10° N 05:04:25 75° WNW 05:08:04 10° SSW visible
18 Nov 10.2 17:13:32 10° WSW 17:14:51 12° W 17:16:10 10° WNW visible
19 Nov 7.6 04:35:23 10° NNE 04:39:01 51° E 04:42:36 10° S visible
19 Nov 9.4 16:46:20 10° SSW 16:49:14 22° W 16:52:12 10° NW visible
20 Nov 9.0 04:10:23 10° NE 04:13:32 25° E 04:16:37 10° SSE visible
20 Nov 7.9 16:20:13 10° S 16:23:43 44° W 16:27:17 10° NNW visible
21 Nov 10.1 03:46:06 10° ENE 03:47:56 13° E 03:49:46 10° ESE visible
21 Nov 6.9 05:18:01 10° N 05:21:35 44° WNW 05:25:04 10° SW visible
21 Nov 6.6 15:54:38 10° SSE 15:58:18 86° ENE 16:02:02 10° N visible
